< Cyclone 199010 1990 Season Cyclone 199012 >
Cyclone 199011 (ALEX)
General InformationTrack Information on Google MapsDetailed Wind InformationList of All Images || ResourceGoogle EarthGE AnimationAtom FeedGeoJSON
Detalied Best Track (Time Zone = UTC)
Year Month Day Hour Lat. Long. Pressure (hPa) Wind (kt) Class Image Chart
1990 3 15 00 -12.2 114.1 1002 25 2 Image --
1990 3 15 06 -12.2 113.5 1002 25 2 Image --
1990 3 15 12 -12.2 113.1 1000 30 2 Image --
1990 3 15 18 -12.2 112.8 998 40 3 Image --
1990 3 16 00 -12.2 112.4 998 45 3 Image --
1990 3 16 06 -12.3 111.8 991 50 4 Image --
1990 3 16 12 -12.3 111.2 988 60 4 Image --
1990 3 16 18 -12.5 110.6 986 70 5 Image --
1990 3 17 00 -12.7 110.0 984 80 5 Image --
1990 3 17 06 -12.9 109.6 980 80 5 Image --
1990 3 17 12 -13.3 109.0 972 90 5 Image --
1990 3 17 18 -13.4 108.6 962 90 5 Image --
1990 3 18 00 -13.5 108.2 952 95 5 Image --
1990 3 18 06 -14.1 107.5 947 100 5 Image --
1990 3 18 12 -14.8 106.4 941 100 5 Image --
1990 3 18 18 -14.9 105.8 938 105 5 Image --
1990 3 19 00 -14.9 105.0 934 110 5 Image --
1990 3 19 06 -15.5 103.9 930 120 5 Image --
1990 3 19 12 -16.1 102.7 927 120 5 Image --
1990 3 19 18 -16.4 101.5 927 115 5 Image --
1990 3 20 00 -16.6 100.6 927 105 5 Image --
1990 3 20 06 -17.3 99.2 941 100 5 Image --
1990 3 20 12 -18.3 97.6 945 95 5 Image --
1990 3 20 18 -18.9 96.6 950 90 5 Image --
1990 3 21 00 -19.5 95.6 954 85 5 Image --
1990 3 21 06 -20.3 94.3 960 75 5 Image --
1990 3 21 12 -21.1 93.0 966 70 5 Image --
1990 3 21 18 -21.5 92.6 972 60 4 Image --
1990 3 22 00 -21.9 92.1 976 55 4 Image --
1990 3 22 06 -22.5 91.5 980 55 4 Image --
1990 3 22 12 -23.9 91.0 984 50 4 Image --
1990 3 22 18 -24.9 91.2 987 50 4 Image --
1990 3 23 00 -25.7 91.6 991 45 3 Image --
1990 3 23 06 -26.4 92.3 994 40 3 Image --
1990 3 23 12 -27.3 92.9 997 35 3 Image --
1990 3 23 18 -27.0 94.3 999 30 2 Image --
1990 3 24 00 -26.5 96.1 1000 25 2 Image --
1990 3 24 06 -26.2 97.6 1001 25 2 Image --
1990 3 24 12 -25.4 98.5 1003 25 2 Image --
1990 3 24 18 -24.8 99.2 1004 25 2 Image --
1990 3 25 00 -21.9 99.5 1004 25 2 Image --
1990 3 25 06 -20.1 99.0 1005 25 2 Image --
1990 3 25 12 -19.3 98.0 1006 0 0 Image --
1990 3 25 18 -18.7 96.6 1007 0 0 Image --
1990 3 26 00 -18.1 94.9 1008 0 0 Image --
< Cyclone 199010 1990 Season Cyclone 199012 >

Help